owner,sensor,date,latitude,longitude,vertical_datum,sea_water_temperature,qcFlag
BP,ioos:station:wmo:42369:2,2021-09-01T00:19:00Z,27.2142,-90.2818,454.2,13.5,11111222
BP,ioos:station:wmo:42369:2,2021-09-01T00:39:00Z,27.2143,-90.2820,454.8,13.3,11111222
BP,ioos:station:wmo:42369:2,2021-09-01T00:59:00Z,27.2144,-90.2821,455.5,13.3,11111222
BP,ioos:station:wmo:42369:2,2021-09-01T01:19:00Z,27.2144,-90.2822,456.4,13.3,11111222
BP,ioos:station:wmo:42369:2,2021-09-01T01:39:00Z,27.2144,-90.2823,455.9,13.3,11111222
BP,ioos:station:wmo:42369:2,2021-09-01T01:59:00Z,27.2143,-90.2824,456.0,13.3,11111222
BP,ioos:station:wmo:42369:2,2021-09-01T02:19:00Z,27.2142,-90.2826,456.4,13.4,11111222
BP,ioos:station:wmo:42369:2,2021-09-01T02:39:00Z,27.2142,-90.2828,455.9,13.4,11111222
BP,ioos:station:wmo:42369:2,2021-09-01T02:59:00Z,27.2141,-90.2830,454.7,13.3,11111222
BP,ioos:station:wmo:42369:2,2021-09-01T03:19:00Z,27.2140,-90.2831,455.2,13.1,11111222
BP,ioos:station:wmo:42369:2,2021-09-01T03:39:00Z,27.2140,-90.2833,453.2,13.2,11111222
BP,ioos:station:wmo:42369:2,2021-09-01T03:59:00Z,27.2140,-90.2834,453.4,13.0,11111222
BP,ioos:station:wmo:42369:2,2021-09-01T04:19:00Z,27.2140,-90.2836,452.3,12.9,11111222
BP,ioos:station:wmo:42369:2,2021-09-01T04:39:00Z,27.2139,-90.2838,452.5,12.9,11111222
BP,ioos:station:wmo:42369:2,2021-09-01T04:59:00Z,27.2139,-90.2839,452.3,12.9,11111222
BP,ioos:station:wmo:42369:2,2021-09-01T05:19:00Z,27.2139,-90.2842,452.4,13.0,11111222
BP,ioos:station:wmo:42369:2,2021-09-01T05:39:00Z,27.2139,-90.2842,452.9,13.0,11111222
BP,ioos:station:wmo:42369:2,2021-09-01T05:59:00Z,27.2138,-90.2844,453.3,13.0,11111222
BP,ioos:station:wmo:42369:2,2021-09-01T06:19:00Z,27.2139,-90.2845,453.4,13.0,11111222
BP,ioos:station:wmo:42369:2,2021-09-01T06:39:00Z,27.2139,-90.2846,453.3,13.0,11111222
BP,ioos:station:wmo:42369:2,2021-09-01T06:59:00Z,27.2139,-90.2847,454.0,13.0,11111222
BP,ioos:station:wmo:42369:2,2021-09-01T07:19:00Z,27.2139,-90.2848,454.6,13.0,11111222
BP,ioos:station:wmo:42369:2,2021-09-01T07:39:00Z,27.2140,-90.2850,456.0,12.9,11111222
BP,ioos:station:wmo:42369:2,2021-09-01T07:59:00Z,27.2140,-90.2850,456.4,12.9,11111222
BP,ioos:station:wmo:42369:2,2021-09-01T08:19:00Z,27.2140,-90.2851,457.2,12.9,11111222
BP,ioos:station:wmo:42369:2,2021-09-01T08:39:00Z,27.2142,-90.2851,459.1,12.9,11111222
BP,ioos:station:wmo:42369:2,2021-09-01T08:59:00Z,27.2142,-90.2851,460.1,12.7,11111222
BP,ioos:station:wmo:42369:2,2021-09-01T09:19:00Z,27.2143,-90.2851,461.4,12.6,11111222
BP,ioos:station:wmo:42369:2,2021-09-01T09:39:00Z,27.2143,-90.2851,462.7,12.6,11111222
BP,ioos:station:wmo:42369:2,2021-09-01T09:59:00Z,27.2143,-90.2852,463.1,12.6,11111222
BP,ioos:station:wmo:42369:2,2021-09-01T10:19:00Z,27.2143,-90.2852,464.8,12.6,11111222
BP,ioos:station:wmo:42369:2,2021-09-01T10:39:00Z,27.2144,-90.2851,465.5,12.6,11111222
BP,ioos:station:wmo:42369:2,2021-09-01T10:59:00Z,27.2144,-90.2851,466.3,12.6,11111222
BP,ioos:station:wmo:42369:2,2021-09-01T11:19:00Z,27.2145,-90.2850,467.1,12.6,11111222
BP,ioos:station:wmo:42369:2,2021-09-01T11:39:00Z,27.2145,-90.2849,468.0,12.5,11111222
BP,ioos:station:wmo:42369:2,2021-09-01T11:59:00Z,27.2145,-90.2850,468.1,12.6,11111222
BP,ioos:station:wmo:42369:2,2021-09-01T12:19:00Z,27.2145,-90.2849,468.3,12.5,11111222
BP,ioos:station:wmo:42369:2,2021-09-01T12:39:00Z,27.2145,-90.2849,468.4,12.5,11111222
BP,ioos:station:wmo:42369:2,2021-09-01T12:59:00Z,27.2147,-90.2848,470.5,12.4,11111222
BP,ioos:station:wmo:42369:2,2021-09-01T13:19:00Z,27.2147,-90.2846,471.9,12.3,11111222
BP,ioos:station:wmo:42369:2,2021-09-01T13:39:00Z,27.2144,-90.2851,472.1,12.4,11111222
BP,ioos:station:wmo:42369:2,2021-09-01T13:59:00Z,27.2148,-90.2844,472.6,12.3,11111222
BP,ioos:station:wmo:42369:2,2021-09-01T14:19:00Z,27.2148,-90.2843,473.0,12.3,11111222
BP,ioos:station:wmo:42369:2,2021-09-01T14:39:00Z,27.2149,-90.2844,474.1,12.3,11111222
BP,ioos:station:wmo:42369:2,2021-09-01T14:59:00Z,27.2149,-90.2843,475.8,12.2,11111222
BP,ioos:station:wmo:42369:2,2021-09-01T15:19:00Z,27.2149,-90.2842,476.2,12.2,11111222
BP,ioos:station:wmo:42369:2,2021-09-01T15:39:00Z,27.2150,-90.2842,476.4,12.2,11111222
BP,ioos:station:wmo:42369:2,2021-09-01T15:59:00Z,27.2150,-90.2841,477.9,12.1,11111222
BP,ioos:station:wmo:42369:2,2021-09-01T16:19:00Z,27.2150,-90.2841,478.9,12.1,11111222
BP,ioos:station:wmo:42369:2,2021-09-01T16:39:00Z,27.2151,-90.2840,479.8,12.0,11111222
BP,ioos:station:wmo:42369:2,2021-09-01T16:59:00Z,27.2151,-90.2839,481.0,12.0,11111222
BP,ioos:station:wmo:42369:2,2021-09-01T17:19:00Z,27.2151,-90.2839,480.9,12.0,11111222
BP,ioos:station:wmo:42369:2,2021-09-01T17:39:00Z,27.2151,-90.2839,480.7,12.0,11111222
BP,ioos:station:wmo:42369:2,2021-09-01T17:59:00Z,27.2151,-90.2839,480.3,11.9,11111222
BP,ioos:station:wmo:42369:2,2021-09-01T18:19:00Z,27.2151,-90.2838,480.7,11.8,11111222
BP,ioos:station:wmo:42369:2,2021-09-01T18:39:00Z,27.2151,-90.2837,482.2,11.9,11111222
BP,ioos:station:wmo:42369:2,2021-09-01T18:59:00Z,27.2151,-90.2837,483.2,12.0,11111222
BP,ioos:station:wmo:42369:2,2021-09-01T19:19:00Z,27.2151,-90.2836,482.2,12.1,11111222
BP,ioos:station:wmo:42369:2,2021-09-01T19:39:00Z,27.2151,-90.2835,482.4,12.0,11111222
BP,ioos:station:wmo:42369:2,2021-09-01T19:59:00Z,27.2151,-90.2834,481.9,11.9,11111222
BP,ioos:station:wmo:42369:2,2021-09-01T20:19:00Z,27.2151,-90.2833,481.1,12.0,11111222
BP,ioos:station:wmo:42369:2,2021-09-01T20:39:00Z,27.2151,-90.2832,479.6,12.1,11111222
BP,ioos:station:wmo:42369:2,2021-09-01T20:59:00Z,27.2151,-90.2831,478.4,12.1,11111222
BP,ioos:station:wmo:42369:2,2021-09-01T21:19:00Z,27.2150,-90.2829,478.0,12.2,11111222
BP,ioos:station:wmo:42369:2,2021-09-01T21:39:00Z,27.2150,-90.2829,477.3,12.2,11111222
BP,ioos:station:wmo:42369:2,2021-09-01T21:59:00Z,27.2150,-90.2829,476.0,12.3,11111222
BP,ioos:station:wmo:42369:2,2021-09-01T22:19:00Z,27.2149,-90.2827,473.3,12.5,11111222
BP,ioos:station:wmo:42369:2,2021-09-01T22:39:00Z,27.2149,-90.2827,471.3,12.5,11111222
BP,ioos:station:wmo:42369:2,2021-09-01T22:59:00Z,27.2149,-90.2826,470.3,12.5,11111222
BP,ioos:station:wmo:42369:2,2021-09-01T23:19:00Z,27.2148,-90.2826,468.6,12.6,11111222
BP,ioos:station:wmo:42369:2,2021-09-01T23:39:00Z,27.2148,-90.2826,467.6,12.6,11111222
BP,ioos:station:wmo:42369:2,2021-09-01T23:59:00Z,27.2148,-90.2827,466.5,12.6,11111222
BP,ioos:station:wmo:42369:2,2021-09-02T00:19:00Z,27.2148,-90.2828,466.2,12.6,11111222
BP,ioos:station:wmo:42369:2,2021-09-02T00:39:00Z,27.2148,-90.2828,466.4,12.6,11111222
BP,ioos:station:wmo:42369:2,2021-09-02T00:59:00Z,27.2147,-90.2828,464.0,12.5,11111222
BP,ioos:station:wmo:42369:2,2021-09-02T01:19:00Z,27.2147,-90.2828,463.8,12.5,11111222
BP,ioos:station:wmo:42369:2,2021-09-02T01:39:00Z,27.2147,-90.2828,462.9,12.6,11111222
BP,ioos:station:wmo:42369:2,2021-09-02T01:59:00Z,27.2146,-90.2828,461.8,12.6,11111222
BP,ioos:station:wmo:42369:2,2021-09-02T02:19:00Z,27.2145,-90.2827,460.7,12.6,11111222
BP,ioos:station:wmo:42369:2,2021-09-02T02:39:00Z,27.2145,-90.2828,459.5,12.7,11111222
BP,ioos:station:wmo:42369:2,2021-09-02T02:59:00Z,27.2145,-90.2828,459.1,12.7,11111222
BP,ioos:station:wmo:42369:2,2021-09-02T03:19:00Z,27.2145,-90.2828,458.7,12.6,11111222
BP,ioos:station:wmo:42369:2,2021-09-02T03:39:00Z,27.2145,-90.2828,458.3,12.6,11111222
BP,ioos:station:wmo:42369:2,2021-09-02T03:59:00Z,27.2145,-90.2828,458.8,12.6,11111222
BP,ioos:station:wmo:42369:2,2021-09-02T04:19:00Z,27.2145,-90.2828,458.2,12.6,11111222
BP,ioos:station:wmo:42369:2,2021-09-02T04:39:00Z,27.2145,-90.2829,457.7,12.6,11111222
BP,ioos:station:wmo:42369:2,2021-09-02T04:59:00Z,27.2144,-90.2829,457.4,12.4,11111222
BP,ioos:station:wmo:42369:2,2021-09-02T05:19:00Z,27.2144,-90.2830,456.4,12.4,11111222
BP,ioos:station:wmo:42369:2,2021-09-02T05:39:00Z,27.2144,-90.2831,456.4,12.3,11111222
BP,ioos:station:wmo:42369:2,2021-09-02T05:59:00Z,27.2144,-90.2832,456.7,12.3,11111222
BP,ioos:station:wmo:42369:2,2021-09-02T06:19:00Z,27.2144,-90.2833,456.6,12.3,11111222
BP,ioos:station:wmo:42369:2,2021-09-02T06:39:00Z,27.2144,-90.2833,457.1,12.2,11111222
BP,ioos:station:wmo:42369:2,2021-09-02T06:59:00Z,27.2144,-90.2832,457.7,12.1,11111222
BP,ioos:station:wmo:42369:2,2021-09-02T07:19:00Z,27.2144,-90.2833,458.1,12.1,11111222
BP,ioos:station:wmo:42369:2,2021-09-02T07:39:00Z,27.2145,-90.2834,458.1,12.2,11111222
BP,ioos:station:wmo:42369:2,2021-09-02T07:59:00Z,27.2145,-90.2835,459.3,12.2,11111222
BP,ioos:station:wmo:42369:2,2021-09-02T08:19:00Z,27.2145,-90.2835,459.3,12.2,11111222
BP,ioos:station:wmo:42369:2,2021-09-02T08:39:00Z,27.2145,-90.2835,459.8,12.1,11111222
BP,ioos:station:wmo:42369:2,2021-09-02T08:59:00Z,27.2145,-90.2834,460.3,12.3,11111222
BP,ioos:station:wmo:42369:2,2021-09-02T09:19:00Z,27.2146,-90.2834,461.9,12.3,11111222
BP,ioos:station:wmo:42369:2,2021-09-02T09:39:00Z,27.2146,-90.2834,462.6,12.2,11111222
BP,ioos:station:wmo:42369:2,2021-09-02T09:59:00Z,27.2148,-90.2834,463.5,12.2,11111222
BP,ioos:station:wmo:42369:2,2021-09-02T10:19:00Z,27.2148,-90.2834,463.9,12.2,11111222
BP,ioos:station:wmo:42369:2,2021-09-02T10:39:00Z,27.2149,-90.2834,465.6,12.2,11111222
BP,ioos:station:wmo:42369:2,2021-09-02T10:59:00Z,27.2149,-90.2834,466.8,12.1,11111222
BP,ioos:station:wmo:42369:2,2021-09-02T11:19:00Z,27.2150,-90.2833,468.4,12.1,11111222
BP,ioos:station:wmo:42369:2,2021-09-02T11:39:00Z,27.2150,-90.2833,469.0,12.1,11111222
BP,ioos:station:wmo:42369:2,2021-09-02T11:59:00Z,27.2150,-90.2832,469.3,12.0,11111222
BP,ioos:station:wmo:42369:2,2021-09-02T12:19:00Z,27.2150,-90.2832,470.3,11.9,11111222
BP,ioos:station:wmo:42369:2,2021-09-02T12:39:00Z,27.2151,-90.2831,470.5,11.9,11111222
BP,ioos:station:wmo:42369:2,2021-09-02T12:59:00Z,27.2151,-90.2831,471.6,11.9,11111222
BP,ioos:station:wmo:42369:2,2021-09-02T13:19:00Z,27.2151,-90.2830,472.6,11.9,11111222
BP,ioos:station:wmo:42369:2,2021-09-02T13:39:00Z,27.2151,-90.2830,472.1,12.0,11111222
BP,ioos:station:wmo:42369:2,2021-09-02T13:59:00Z,27.2151,-90.2830,474.0,12.1,11111222
BP,ioos:station:wmo:42369:2,2021-09-02T14:19:00Z,27.2152,-90.2829,474.6,12.0,11111222
BP,ioos:station:wmo:42369:2,2021-09-02T14:39:00Z,27.2152,-90.2828,475.3,12.1,11111222
BP,ioos:station:wmo:42369:2,2021-09-02T14:59:00Z,27.2152,-90.2827,476.2,12.0,11111222
BP,ioos:station:wmo:42369:2,2021-09-02T15:19:00Z,27.2152,-90.2825,476.4,12.0,11111222
BP,ioos:station:wmo:42369:2,2021-09-02T15:39:00Z,27.2153,-90.2824,477.5,11.9,11111222
BP,ioos:station:wmo:42369:2,2021-09-02T15:59:00Z,27.2153,-90.2822,477.7,12.0,11111222
BP,ioos:station:wmo:42369:2,2021-09-02T16:19:00Z,27.2153,-90.2820,478.3,11.8,11111222
BP,ioos:station:wmo:42369:2,2021-09-02T16:39:00Z,27.2153,-90.2819,478.4,11.8,11111222
BP,ioos:station:wmo:42369:2,2021-09-02T16:59:00Z,27.2154,-90.2816,480.2,11.9,11111222
BP,ioos:station:wmo:42369:2,2021-09-02T17:19:00Z,27.2154,-90.2814,480.9,11.9,11111222
BP,ioos:station:wmo:42369:2,2021-09-02T17:39:00Z,27.2154,-90.2812,481.0,11.9,11111222
BP,ioos:station:wmo:42369:2,2021-09-02T17:59:00Z,27.2154,-90.2810,482.3,11.9,11111222
BP,ioos:station:wmo:42369:2,2021-09-02T18:19:00Z,27.2154,-90.2809,482.9,11.9,11111222
BP,ioos:station:wmo:42369:2,2021-09-02T18:39:00Z,27.2154,-90.2807,483.2,11.9,11111222
BP,ioos:station:wmo:42369:2,2021-09-02T18:59:00Z,27.2153,-90.2804,483.0,11.8,11111222
BP,ioos:station:wmo:42369:2,2021-09-02T19:19:00Z,27.2153,-90.2801,484.0,11.7,11111222
BP,ioos:station:wmo:42369:2,2021-09-02T19:39:00Z,27.2153,-90.2800,483.7,11.7,11111222
BP,ioos:station:wmo:42369:2,2021-09-02T19:59:00Z,27.2153,-90.2798,484.0,11.7,11111222
BP,ioos:station:wmo:42369:2,2021-09-02T20:19:00Z,27.2152,-90.2796,483.4,11.8,11111222
BP,ioos:station:wmo:42369:2,2021-09-02T20:39:00Z,27.2151,-90.2793,483.4,11.7,11111222
BP,ioos:station:wmo:42369:2,2021-09-02T20:59:00Z,27.2151,-90.2791,483.9,11.7,11111222
BP,ioos:station:wmo:42369:2,2021-09-02T21:19:00Z,27.2150,-90.2790,481.9,11.7,11111222
BP,ioos:station:wmo:42369:2,2021-09-02T21:39:00Z,27.2149,-90.2787,481.5,11.8,11111222
BP,ioos:station:wmo:42369:2,2021-09-02T21:59:00Z,27.2148,-90.2785,480.9,11.8,11111222
BP,ioos:station:wmo:42369:2,2021-09-02T22:19:00Z,27.2147,-90.2783,481.3,11.8,11111222
BP,ioos:station:wmo:42369:2,2021-09-02T22:39:00Z,27.2147,-90.2781,481.3,11.8,11111222
BP,ioos:station:wmo:42369:2,2021-09-02T22:59:00Z,27.2146,-90.2779,480.6,11.9,11111222
BP,ioos:station:wmo:42369:2,2021-09-02T23:19:00Z,27.2145,-90.2778,479.2,11.9,11111222
BP,ioos:station:wmo:42369:2,2021-09-02T23:39:00Z,27.2144,-90.2777,477.1,11.9,11111222
BP,ioos:station:wmo:42369:2,2021-09-02T23:59:00Z,27.2144,-90.2777,475.9,12.0,11111222
BP,ioos:station:wmo:42369:2,2021-09-03T00:19:00Z,27.2144,-90.2777,474.9,12.0,11111222
BP,ioos:station:wmo:42369:2,2021-09-03T00:39:00Z,27.2143,-90.2778,473.0,12.0,11111222
BP,ioos:station:wmo:42369:2,2021-09-03T00:59:00Z,27.2143,-90.2780,471.4,12.1,11111222
BP,ioos:station:wmo:42369:2,2021-09-03T01:19:00Z,27.2143,-90.2781,469.2,12.1,11111222
BP,ioos:station:wmo:42369:2,2021-09-03T01:39:00Z,27.2143,-90.2781,467.0,12.1,11111222
BP,ioos:station:wmo:42369:2,2021-09-03T01:59:00Z,27.2143,-90.2782,465.7,12.0,11111222
BP,ioos:station:wmo:42369:2,2021-09-03T02:19:00Z,27.2143,-90.2784,464.5,12.1,11111222
BP,ioos:station:wmo:42369:2,2021-09-03T02:39:00Z,27.2142,-90.2787,462.3,12.2,11111222
BP,ioos:station:wmo:42369:2,2021-09-03T02:59:00Z,27.2143,-90.2789,461.6,12.3,11111222
BP,ioos:station:wmo:42369:2,2021-09-03T03:19:00Z,27.2143,-90.2791,461.3,12.3,11111222
BP,ioos:station:wmo:42369:2,2021-09-03T03:39:00Z,27.2143,-90.2793,461.4,12.2,11111222
BP,ioos:station:wmo:42369:2,2021-09-03T03:59:00Z,27.2144,-90.2795,461.6,12.3,11111222
BP,ioos:station:wmo:42369:2,2021-09-03T04:19:00Z,27.2144,-90.2797,461.3,12.3,11111222
BP,ioos:station:wmo:42369:2,2021-09-03T04:39:00Z,27.2144,-90.2799,460.6,12.3,11111222
BP,ioos:station:wmo:42369:2,2021-09-03T04:59:00Z,27.2144,-90.2801,460.3,12.3,11111222
BP,ioos:station:wmo:42369:2,2021-09-03T05:19:00Z,27.2144,-90.2802,459.4,12.3,11111222
BP,ioos:station:wmo:42369:2,2021-09-03T05:39:00Z,27.2144,-90.2803,459.1,12.4,11111222
BP,ioos:station:wmo:42369:2,2021-09-03T05:59:00Z,27.2144,-90.2804,458.9,12.5,11111222
BP,ioos:station:wmo:42369:2,2021-09-03T06:19:00Z,27.2144,-90.2805,458.7,12.5,11111222
BP,ioos:station:wmo:42369:2,2021-09-03T06:39:00Z,27.2144,-90.2806,457.8,12.7,11111222
BP,ioos:station:wmo:42369:2,2021-09-03T06:59:00Z,27.2144,-90.2806,458.1,12.6,11111222
BP,ioos:station:wmo:42369:2,2021-09-03T07:19:00Z,27.2144,-90.2807,458.0,12.5,11111222
BP,ioos:station:wmo:42369:2,2021-09-03T07:39:00Z,27.2144,-90.2807,457.7,12.6,11111222
BP,ioos:station:wmo:42369:2,2021-09-03T07:59:00Z,27.2144,-90.2808,458.3,12.5,11111222
BP,ioos:station:wmo:42369:2,2021-09-03T08:19:00Z,27.2145,-90.2809,459.7,12.4,11111222
BP,ioos:station:wmo:42369:2,2021-09-03T08:39:00Z,27.2145,-90.2809,459.8,12.4,11111222
BP,ioos:station:wmo:42369:2,2021-09-03T08:59:00Z,27.2146,-90.2810,460.9,12.3,11111222
BP,ioos:station:wmo:42369:2,2021-09-03T09:19:00Z,27.2146,-90.2810,461.8,11.9,11111222
BP,ioos:station:wmo:42369:2,2021-09-03T09:39:00Z,27.2147,-90.2810,462.6,11.8,11111222
BP,ioos:station:wmo:42369:2,2021-09-03T09:59:00Z,27.2147,-90.2810,464.0,11.7,11111222
BP,ioos:station:wmo:42369:2,2021-09-03T10:19:00Z,27.2147,-90.2810,464.2,11.6,11111222
BP,ioos:station:wmo:42369:2,2021-09-03T10:39:00Z,27.2148,-90.2811,465.1,11.6,11111222
BP,ioos:station:wmo:42369:2,2021-09-03T10:59:00Z,27.2148,-90.2811,465.1,11.7,11111222
BP,ioos:station:wmo:42369:2,2021-09-03T11:19:00Z,27.2148,-90.2811,466.5,11.8,11111222
BP,ioos:station:wmo:42369:2,2021-09-03T11:39:00Z,27.2148,-90.2810,466.4,11.8,11111222
BP,ioos:station:wmo:42369:2,2021-09-03T11:59:00Z,27.2149,-90.2810,468.2,11.8,11111222
BP,ioos:station:wmo:42369:2,2021-09-03T12:19:00Z,27.2149,-90.2809,468.8,11.7,11111222
BP,ioos:station:wmo:42369:2,2021-09-03T12:39:00Z,27.2149,-90.2808,469.0,11.6,11111222
BP,ioos:station:wmo:42369:2,2021-09-03T12:59:00Z,27.2149,-90.2808,468.7,11.7,11111222
BP,ioos:station:wmo:42369:2,2021-09-03T13:19:00Z,27.2149,-90.2805,468.9,11.8,11111222
BP,ioos:station:wmo:42369:2,2021-09-03T13:39:00Z,27.2149,-90.2804,469.7,12.0,11111222
BP,ioos:station:wmo:42369:2,2021-09-03T13:59:00Z,27.2149,-90.2803,470.7,11.8,11111222
BP,ioos:station:wmo:42369:2,2021-09-03T14:19:00Z,27.2149,-90.2801,471.9,11.8,11111222
BP,ioos:station:wmo:42369:2,2021-09-03T14:39:00Z,27.2149,-90.2800,471.8,11.8,11111222
BP,ioos:station:wmo:42369:2,2021-09-03T14:59:00Z,27.2149,-90.2799,471.8,11.9,11111222
BP,ioos:station:wmo:42369:2,2021-09-03T15:19:00Z,27.2149,-90.2797,471.4,12.0,11111222
BP,ioos:station:wmo:42369:2,2021-09-03T15:39:00Z,27.2148,-90.2795,471.8,11.9,11111222
BP,ioos:station:wmo:42369:2,2021-09-03T15:59:00Z,27.2148,-90.2794,472.4,12.2,11111222
BP,ioos:station:wmo:42369:2,2021-09-03T16:19:00Z,27.2147,-90.2792,471.2,12.2,11111222
BP,ioos:station:wmo:42369:2,2021-09-03T16:39:00Z,27.2147,-90.2791,472.2,12.1,11111222
BP,ioos:station:wmo:42369:2,2021-09-03T16:59:00Z,27.2147,-90.2789,472.6,12.0,11111222
BP,ioos:station:wmo:42369:2,2021-09-03T17:19:00Z,27.2147,-90.2788,473.6,12.1,11111222
BP,ioos:station:wmo:42369:2,2021-09-03T17:39:00Z,27.2147,-90.2787,473.8,12.1,11111222
BP,ioos:station:wmo:42369:2,2021-09-03T17:59:00Z,27.2146,-90.2787,473.0,12.1,11111222
BP,ioos:station:wmo:42369:2,2021-09-03T18:19:00Z,27.2146,-90.2786,474.3,12.0,11111222
BP,ioos:station:wmo:42369:2,2021-09-03T18:39:00Z,27.2146,-90.2786,474.5,12.0,11111222
BP,ioos:station:wmo:42369:2,2021-09-03T18:59:00Z,27.2146,-90.2784,474.9,12.0,11111222
BP,ioos:station:wmo:42369:2,2021-09-03T19:19:00Z,27.2145,-90.2782,474.6,12.0,11111222
BP,ioos:station:wmo:42369:2,2021-09-03T19:39:00Z,27.2144,-90.2776,474.9,11.9,11111222
BP,ioos:station:wmo:42369:2,2021-09-03T19:59:00Z,27.2144,-90.2776,475.3,11.8,11111222
BP,ioos:station:wmo:42369:2,2021-09-03T20:19:00Z,27.2144,-90.2776,475.0,11.9,11111222
BP,ioos:station:wmo:42369:2,2021-09-03T20:39:00Z,27.2144,-90.2777,476.4,11.8,11111222
BP,ioos:station:wmo:42369:2,2021-09-03T20:59:00Z,27.2144,-90.2777,477.0,11.9,11111222
BP,ioos:station:wmo:42369:2,2021-09-03T21:19:00Z,27.2144,-90.2777,477.3,11.8,11111222
BP,ioos:station:wmo:42369:2,2021-09-03T21:39:00Z,27.2144,-90.2777,477.2,11.8,11111222
BP,ioos:station:wmo:42369:2,2021-09-03T21:59:00Z,27.2144,-90.2776,479.2,11.8,11111222
BP,ioos:station:wmo:42369:2,2021-09-03T22:19:00Z,27.2144,-90.2777,480.0,11.8,11111222
BP,ioos:station:wmo:42369:2,2021-09-03T22:39:00Z,27.2144,-90.2777,479.5,11.8,11111222
BP,ioos:station:wmo:42369:2,2021-09-03T22:59:00Z,27.2145,-90.2777,479.5,11.7,11111222
BP,ioos:station:wmo:42369:2,2021-09-03T23:19:00Z,27.2145,-90.2777,480.0,11.7,11111222
BP,ioos:station:wmo:42369:2,2021-09-03T23:39:00Z,27.2145,-90.2778,479.5,11.8,11111222
BP,ioos:station:wmo:42369:2,2021-09-03T23:59:00Z,27.2145,-90.2778,478.7,11.9,11111222
BP,ioos:station:wmo:42369:2,2021-09-04T00:19:00Z,27.2145,-90.2778,479.2,12.0,11111222
BP,ioos:station:wmo:42369:2,2021-09-04T00:39:00Z,27.2144,-90.2779,478.8,12.1,11111222
BP,ioos:station:wmo:42369:2,2021-09-04T00:59:00Z,27.2145,-90.2779,478.5,11.9,11111222
BP,ioos:station:wmo:42369:2,2021-09-04T01:19:00Z,27.2145,-90.2780,478.9,11.9,11111222
BP,ioos:station:wmo:42369:2,2021-09-04T01:39:00Z,27.2146,-90.2780,480.0,11.9,11111222
BP,ioos:station:wmo:42369:2,2021-09-04T01:59:00Z,27.2146,-90.2780,479.8,11.8,11111222
BP,ioos:station:wmo:42369:2,2021-09-04T02:19:00Z,27.2146,-90.2781,479.6,11.8,11111222
BP,ioos:station:wmo:42369:2,2021-09-04T02:39:00Z,27.2145,-90.2782,478.6,11.8,11111222
BP,ioos:station:wmo:42369:2,2021-09-04T02:59:00Z,27.2145,-90.2782,478.5,11.8,11111222
BP,ioos:station:wmo:42369:2,2021-09-04T03:19:00Z,27.2145,-90.2782,477.8,11.9,11111222
BP,ioos:station:wmo:42369:2,2021-09-04T03:39:00Z,27.2145,-90.2782,476.8,11.9,11111222
BP,ioos:station:wmo:42369:2,2021-09-04T03:59:00Z,27.2145,-90.2782,476.4,11.9,11111222
BP,ioos:station:wmo:42369:2,2021-09-04T04:19:00Z,27.2145,-90.2782,475.9,11.9,11111222
BP,ioos:station:wmo:42369:2,2021-09-04T04:39:00Z,27.2145,-90.2782,474.3,12.1,11111222
BP,ioos:station:wmo:42369:2,2021-09-04T04:59:00Z,27.2145,-90.2782,474.4,12.2,11111222
BP,ioos:station:wmo:42369:2,2021-09-04T05:19:00Z,27.2145,-90.2782,473.4,12.2,11111222
BP,ioos:station:wmo:42369:2,2021-09-04T05:39:00Z,27.2144,-90.2783,472.8,12.2,11111222
BP,ioos:station:wmo:42369:2,2021-09-04T05:59:00Z,27.2145,-90.2783,472.8,12.2,11111222
BP,ioos:station:wmo:42369:2,2021-09-04T06:19:00Z,27.2145,-90.2783,472.7,12.1,11111222
BP,ioos:station:wmo:42369:2,2021-09-04T06:39:00Z,27.2144,-90.2783,471.5,12.1,11111222
BP,ioos:station:wmo:42369:2,2021-09-04T06:59:00Z,27.2144,-90.2783,471.9,12.2,11111222
BP,ioos:station:wmo:42369:2,2021-09-04T07:19:00Z,27.2144,-90.2783,470.3,12.2,11111222
BP,ioos:station:wmo:42369:2,2021-09-04T07:39:00Z,27.2144,-90.2784,470.6,12.1,11111222
BP,ioos:station:wmo:42369:2,2021-09-04T07:59:00Z,27.2145,-90.2785,471.0,12.0,11111222
BP,ioos:station:wmo:42369:2,2021-09-04T08:19:00Z,27.2145,-90.2785,471.0,12.1,11111222
BP,ioos:station:wmo:42369:2,2021-09-04T08:39:00Z,27.2145,-90.2785,471.2,12.0,11111222
BP,ioos:station:wmo:42369:2,2021-09-04T08:59:00Z,27.2146,-90.2785,471.9,12.0,11111222
BP,ioos:station:wmo:42369:2,2021-09-04T09:19:00Z,27.2145,-90.2784,471.4,12.0,11111222
BP,ioos:station:wmo:42369:2,2021-09-04T09:39:00Z,27.2145,-90.2783,471.5,12.1,11111222
BP,ioos:station:wmo:42369:2,2021-09-04T09:59:00Z,27.2145,-90.2783,472.7,12.1,11111222
BP,ioos:station:wmo:42369:2,2021-09-04T10:19:00Z,27.2146,-90.2783,473.1,12.1,11111222
BP,ioos:station:wmo:42369:2,2021-09-04T10:39:00Z,27.2146,-90.2782,473.5,12.1,11111222
BP,ioos:station:wmo:42369:2,2021-09-04T10:59:00Z,27.2145,-90.2783,473.3,12.1,11111222
BP,ioos:station:wmo:42369:2,2021-09-04T11:19:00Z,27.2146,-90.2783,473.5,12.1,11111222
BP,ioos:station:wmo:42369:2,2021-09-04T11:39:00Z,27.2146,-90.2783,475.2,12.1,11111222
BP,ioos:station:wmo:42369:2,2021-09-04T11:59:00Z,27.2146,-90.2783,475.1,12.1,11111222
BP,ioos:station:wmo:42369:2,2021-09-04T12:19:00Z,27.2146,-90.2783,474.8,12.1,11111222
BP,ioos:station:wmo:42369:2,2021-09-04T12:39:00Z,27.2146,-90.2784,473.9,12.1,11111222
BP,ioos:station:wmo:42369:2,2021-09-04T12:59:00Z,27.2146,-90.2783,474.2,12.0,11111222
BP,ioos:station:wmo:42369:2,2021-09-04T13:19:00Z,27.2146,-90.2783,474.9,12.1,11111222
BP,ioos:station:wmo:42369:2,2021-09-04T13:39:00Z,27.2147,-90.2783,475.5,12.1,11111222
BP,ioos:station:wmo:42369:2,2021-09-04T13:59:00Z,27.2147,-90.2783,477.5,12.1,11111222
BP,ioos:station:wmo:42369:2,2021-09-04T14:19:00Z,27.2147,-90.2783,478.3,12.1,11111222
BP,ioos:station:wmo:42369:2,2021-09-04T14:39:00Z,27.2147,-90.2782,478.1,12.0,11111222
BP,ioos:station:wmo:42369:2,2021-09-04T14:59:00Z,27.2147,-90.2781,479.9,12.0,11111222
BP,ioos:station:wmo:42369:2,2021-09-04T15:19:00Z,27.2146,-90.2780,480.5,12.0,11111222
BP,ioos:station:wmo:42369:2,2021-09-04T15:39:00Z,27.2146,-90.2779,480.0,12.0,11111222
BP,ioos:station:wmo:42369:2,2021-09-04T15:59:00Z,27.2146,-90.2778,479.3,12.1,11111222
BP,ioos:station:wmo:42369:2,2021-09-04T16:19:00Z,27.2145,-90.2778,478.2,12.2,11111222
BP,ioos:station:wmo:42369:2,2021-09-04T16:39:00Z,27.2145,-90.2778,479.1,12.3,11111222
BP,ioos:station:wmo:42369:2,2021-09-04T16:59:00Z,27.2145,-90.2779,478.9,12.2,11111222
BP,ioos:station:wmo:42369:2,2021-09-04T17:19:00Z,27.2145,-90.2780,478.1,12.3,11111222
BP,ioos:station:wmo:42369:2,2021-09-04T17:39:00Z,27.2145,-90.2780,477.7,12.3,11111222
BP,ioos:station:wmo:42369:2,2021-09-04T17:59:00Z,27.2145,-90.2780,476.8,12.3,11111222
BP,ioos:station:wmo:42369:2,2021-09-04T18:19:00Z,27.2145,-90.2780,476.1,12.3,11111222
BP,ioos:station:wmo:42369:2,2021-09-04T18:39:00Z,27.2144,-90.2780,475.3,12.2,11111222
BP,ioos:station:wmo:42369:2,2021-09-04T18:59:00Z,27.2144,-90.2779,475.4,12.2,11111222
BP,ioos:station:wmo:42369:2,2021-09-04T19:19:00Z,27.2143,-90.2778,474.6,12.2,11111222